www.pogodaiklimat.ru
ПОГОДА в Навои

Архив погоды в Навои (Навоийская область, Узбекистан)

Время
и дата
23:30 27.05
23:40 27.05
23:50 27.05
00:10 28.05
00:20 28.05
00:40 28.05
01:00 28.05
01:20 28.05
01:40 28.05
01:50 28.05
02:00 28.05
02:10 28.05
02:20 28.05
02:40 28.05
02:50 28.05
03:00 28.05
03:10 28.05
03:30 28.05
03:50 28.05
04:00 28.05
04:10 28.05
04:20 28.05
04:30 28.05
04:50 28.05
05:00 28.05
05:20 28.05
05:30 28.05
06:00 28.05
06:20 28.05
06:30 28.05
06:40 28.05
06:50 28.05
07:10 28.05
07:20 28.05
07:30 28.05
07:40 28.05
08:00 28.05
08:10 28.05
08:20 28.05
08:30 28.05
08:40 28.05
08:50 28.05
09:00 28.05
09:10 28.05
09:20 28.05
09:30 28.05
09:50 28.05
10:00 28.05
10:10 28.05
10:20 28.05
10:30 28.05
10:40 28.05
10:50 28.05
11:10 28.05
11:20 28.05
11:30 28.05
11:40 28.05
11:50 28.05
12:10 28.05
12:20 28.05
12:30 28.05
13:10 28.05
13:20 28.05
13:30 28.05
13:40 28.05
14:00 28.05
14:10 28.05
14:30 28.05
14:50 28.05
15:00 28.05
15:20 28.05
15:30 28.05
15:40 28.05
15:50 28.05
16:00 28.05
16:10 28.05
16:20 28.05
16:30 28.05
16:50 28.05
17:00 28.05
17:20 28.05
17:30 28.05
17:50 28.05
18:10 28.05
18:20 28.05
18:30 28.05
18:50 28.05
19:00 28.05
19:10 28.05
19:20 28.05
19:30 28.05
19:40 28.05
20:00 28.05
20:10 28.05
20:20 28.05
20:30 28.05
20:40 28.05
20:50 28.05
21:00 28.05
21:10 28.05
21:30 28.05
21:40 28.05
21:50 28.05
22:20 28.05
22:30 28.05
22:50 28.05
23:00 28.05
23:10 28.05
23:20 28.05
23:40 28.05
23:50 28.05
00:00 29.05
00:20 29.05
00:40 29.05
00:50 29.05
01:00 29.05
01:10 29.05
01:20 29.05
01:30 29.05
01:40 29.05
02:00 29.05
02:10 29.05
02:30 29.05
02:40 29.05
02:50 29.05
03:00 29.05
03:10 29.05
03:20 29.05
03:40 29.05
03:50 29.05
04:00 29.05
04:10 29.05
04:30 29.05
04:50 29.05
05:00 29.05
05:20 29.05
05:30 29.05
05:40 29.05
05:50 29.05
06:00 29.05
06:10 29.05
06:30 29.05
06:50 29.05
07:00 29.05
Ветер
(напр.,м/с)
Видимость Явления Солнечная радиация
(Вт/м2)
Т
(С)
Тd
(С)
f
(%)
Тe
(С)
Тes
(С)
Комфортность P
(гПа)
Po
(гПа)
Тmin
(С)
Tmax
(С)
R
(мм)
ЮЗ 1.3
{2.4}
+20.9 +4.1 33 +22 +22 комфорт 1012.8 966.3 +21.1 +20.9
ЮЗ 1.3
{2.7}
+20.3 +4.0 34 +22 +22 комфорт 1012.7 966.2 +20.9 +20.3
ЮВ 1.9
{4.3}
+19.9 +3.9 35 +21 +21 комфорт 1012.9 966.4 +20.3 +19.8
В 0.8
{2.0}
+20.7 +2.4 30 +22 +22 комфорт 1012.9 966.4 +20.7 +20.5
СВ 1.3
{2.0}
+21.0 +2.2 29 +22 +22 комфорт 1012.8 966.3 +21.0 +20.7
С 0.7
{1.3}
+20.3 +3.5 33 +22 +22 комфорт 1012.7 966.2 +20.9 +20.3
СВ 0.6
{1.6}
+19.0 +4.4 38 +21 +21 комфорт 1012.7 966.2 +19.6 +19.0
СВ 0.9
{1.2}
+18.3 +4.7 40 +20 +20 1012.7 966.2 +18.6 +18.3
СЗ 0.6
{1.3}
+17.9 +5.5 44 +19 +19 1012.7 966.2 +18.2 +18.0
С 0.7
{1.4}
+17.8 +5.6 45 +19 +19 1012.6 966.1 +18.0 +17.8
С 0.6
{1.2}
+17.6 +5.9 46 +19 +19 1012.7 966.2 +17.8 +17.6
С 0.6
{1.3}
+17.5 +6.1 47 +19 +19 1012.8 966.3 +17.6 +17.5
С 1.0
{1.8}
+17.3 +6.2 48 +18 +18 1012.7 966.2 +17.5 +17.3
С 1.1
{2.4}
+16.6 +6.3 51 +17 +17 1012.7 966.2 +16.9 +16.6
С 1.1
{2.2}
+16.4 +6.8 53 +17 +17 1012.9 966.4 +16.6 +16.4
С 1.4
{3.0}
+16.2 +7.6 57 +17 +17 1013.0 966.5 +16.4 +16.2
СВ 1.4
{2.8}
+15.9 +8.1 60 +16 +16 1013.0 966.5 +16.2 +15.9
СВ 1.0
{2.5}
+15.7 +8.4 62 +16 +16 1013.2 966.7 +15.8 +15.7
СВ 1.2
{2.2}
+15.5 +8.6 64 +16 +16 1013.3 966.8 +15.6 +15.5
СВ 0.9
{1.5}
+15.3 +8.8 65 +16 +16 1013.4 966.9 +15.5 +15.3
В 1.0
{1.9}
+15.3 +9.0 66 +16 +16 1013.4 966.9 +15.3 +15.3
В 1.3
{2.1}
+15.3 +9.1 67 +16 +16 1013.3 966.8 +15.4 +15.3
ЮВ 0.5
{1.2}
+15.1 +9.2 68 +16 +16 1013.4 966.9 +15.3 +15.1
В 0.5
{1.3}
+15.1 +9.2 68 +16 +16 1013.5 967.0 +15.1 +15.0
В 0.7
{1.4}
+15.1 +9.2 68 +16 +16 1013.5 967.0 +15.1 +15.1
ЮВ 0.4
{1.2}
+15.4 +9.1 66 +17 +17 1013.7 967.2 +15.4 +15.3
З 0.5
{1.2}
+15.4 +9.1 66 +17 +17 1014.0 967.4 +15.4 +15.4
ЮВ 0.7
{1.4}
+15.8 +9.2 65 +17 +17 1014.2 967.6 +15.8 +15.7
В 2.6
{4.3}
+19.4 +7.3 45 +20 +20 1014.3 967.7 +19.4 +16.5
В 2.7
{4.3}
+20.2 +7.6 44 +22 +22 комфорт 1014.3 967.7 +20.2 +19.4
СВ 2.9
{4.8}
+20.2 +7.8 45 +22 +22 комфорт 1014.3 967.7 +20.3 +20.2
СВ 3.0
{4.7}
+19.5 +8.9 50 +21 +21 комфорт 1014.3 967.7 +20.2 +19.5
СВ 2.3
{4.1}
+19.5 +10.1 54 +21 +21 комфорт 1014.5 967.9 +19.6 +19.4
СВ 2.0
{4.0}
+19.6 +10.0 54 +21 +21 комфорт 1014.5 967.9 +19.7 +19.4
СВ 2.7
{4.2}
+21.0 +7.9 43 +23 +23 комфорт 1014.5 967.9 +21.0 +19.6
СВ 2.4
{4.4}
+21.6 +9.4 46 +23 +23 комфорт 1014.5 967.9 +21.8 +21.0
В 3.2
{5.1}
+23.3 +6.8 35 +24 +24 комфорт 1014.6 968.0 +23.3 +22.4
В 2.6
{4.5}
+24.0 +7.1 34 +24 +24 комфорт 1014.6 968.0 +24.0 +23.3
В 2.9
{5.1}
+24.7 +6.7 32 +25 +25 комфорт 1014.7 968.1 +24.7 +24.0
В 2.5
{4.2}
+25.0 +6.8 31 +25 +25 комфорт 1014.7 968.1 +25.0 +24.7
В 2.8
{5.7}
+25.3 +6.2 29 +25 +25 комфорт 1014.8 968.2 +25.7 +25.0
СВ 2.7
{4.7}
+25.2 +6.3 30 +25 +25 комфорт 1014.9 968.3 +25.5 +25.0
СВ 2.1
{4.0}
+25.7 +6.5 29 +25 +25 комфорт 1015.0 968.4 +25.8 +25.2
СВ 1.9
{4.1}
+26.0 +6.2 28 +26 +26 жарко 1015.1 968.5 +26.0 +25.6
СВ 1.8
{3.5}
+26.5 +5.4 26 +26 +26 жарко 1015.1 968.5 +26.5 +26.0
С 1.4
{3.4}
+27.2 +4.0 22 +26 +26 жарко 1015.2 968.6 +27.2 +26.5
СВ 1.6
{3.5}
+28.1 +3.9 21 +27 +27 жарко 1015.3 968.7 +28.1 +27.4
В 1.6
{3.4}
+28.4 +2.0 18 +26 +26 жарко 1015.3 968.7 +28.6 +28.1
СВ 1.4
{3.6}
+28.5 +1.0 17 +26 +26 жарко 1015.3 968.7 +28.8 +28.2
СВ 1.9
{3.6}
+28.7 +1.2 17 +26 +26 жарко 1015.2 968.6 +28.7 +28.3
СВ 1.6
{3.9}
+29.1 -0.9 14 +26 +26 жарко 1015.3 968.7 +29.3 +28.7
СВ 2.0
{4.8}
+29.2 +1.4 17 +27 +27 жарко 1015.3 968.7 +29.3 +29.1
С 1.7
{3.8}
+29.5 +1.2 16 +27 +27 жарко 1015.4 968.8 +29.5 +29.0
СВ 2.4
{6.0}
+30.1 +1.1 16 +28 +28 жарко 1015.5 968.9 +30.0 +29.0
С 2.4
{5.8}
+30.3 -0.3 14 +27 +27 жарко 1015.5 968.9 +30.4 +30.1
С 2.1
{5.8}
+30.6 -1.4 13 +27 +27 жарко 1015.5 968.9 +30.8 +30.1
СВ 1.9
{5.1}
+31.1 -0.5 13 +28 +28 жарко 1015.4 968.8 +31.1 +30.5
СВ 1.8
{3.7}
+31.0 -1.5 12 +28 +28 жарко 1015.3 968.7 +31.2 +31.0
С 2.9
{5.6}
+30.9 -3.4 11 +27 +27 жарко 1015.3 968.7 +31.1 +30.8
С 3.2
{7.1}
+30.5 -3.3 11 +27 +27 жарко 1015.3 968.7 +31.2 +30.5
С 3.6
{8.3}
+31.1 -3.7 10 +27 +27 жарко 1015.3 968.7 +31.1 +30.5
СЗ 3.0
{6.8}
+31.4 -4.2 10 +28 +28 жарко 1015.3 968.7 +31.8 +31.3
С 3.4
{6.7}
+31.7 -4.4 9 +28 +28 жарко 1015.3 968.7 +31.7 +31.3
СВ 3.7
{8.6}
+31.0 -3.7 10 +27 +27 жарко 1015.2 968.6 +31.9 +30.8
С 3.4
{6.8}
+31.7 -3.9 10 +28 +28 жарко 1015.3 968.7 +31.7 +31.0
С 3.5
{9.2}
+31.7 -4.2 10 +28 +28 жарко 1015.2 968.6 +31.7 +31.2
С 2.9
{7.5}
+31.6 -3.7 10 +28 +28 жарко 1015.1 968.5 +31.8 +31.3
С 2.6
{5.6}
+32.0 -5.0 9 +28 +28 жарко 1015.0 968.4 +32.0 +31.2
С 3.4
{6.7}
+31.8 -4.7 9 +28 +28 жарко 1014.9 968.3 +32.2 +31.8
С 3.0
{6.9}
+31.8 -4.9 9 +28 +28 жарко 1015.0 968.4 +31.9 +31.7
СВ 3.8
{7.7}
+31.3 -4.6 10 +28 +28 жарко 1014.9 968.3 +31.5 +31.2
С 3.8
{8.0}
+31.7 -4.7 9 +28 +28 жарко 1014.9 968.3 +31.7 +31.3
С 3.6
{8.4}
+31.8 -5.3 9 +28 +28 жарко 1014.8 968.2 +32.0 +31.7
С 3.7
{9.3}
+31.6 -4.8 9 +28 +28 жарко 1014.8 968.2 +31.8 +31.5
СВ 3.4
{7.6}
+31.8 -4.9 9 +28 +28 жарко 1014.9 968.3 +31.9 +31.5
С 3.8
{9.0}
+31.5 -5.1 9 +28 +28 жарко 1014.9 968.3 +31.8 +31.5
С 3.6
{8.3}
+31.4 -4.4 10 +28 +28 жарко 1014.9 968.3 +31.6 +31.4
С 3.9
{9.1}
+31.2 -5.4 9 +27 +27 жарко 1014.9 968.3 +31.4 +31.1
С 3.4
{7.0}
+31.2 -5.4 9 +27 +27 жарко 1014.8 968.2 +31.5 +31.2
С 3.6
{8.2}
+31.0 -5.6 9 +27 +27 жарко 1014.8 968.2 +31.3 +31.0
С 4.2
{9.4}
+30.5 -4.3 10 +27 +27 жарко 1014.7 968.1 +30.9 +30.5
СВ 3.6
{7.8}
+30.3 -5.2 10 +27 +27 жарко 1014.7 968.1 +30.8 +30.3
С 3.3
{7.8}
+30.3 -3.9 11 +27 +27 жарко 1014.7 968.1 +30.6 +30.3
С 3.2
{6.7}
+30.1 -3.5 11 +27 +27 жарко 1014.8 968.2 +30.3 +30.1
С 3.4
{7.5}
+29.8 -3.2 12 +27 +27 жарко 1014.9 968.3 +30.1 +29.8
С 3.7
{7.5}
+29.6 -3.8 11 +26 +26 жарко 1014.9 968.3 +29.8 +29.5
С 2.9
{7.1}
+29.0 -2.5 13 +26 +26 жарко 1014.9 968.3 +29.3 +29.0
С 2.4
{5.4}
+28.8 -2.4 13 +26 +26 жарко 1015.0 968.4 +29.1 +28.8
С 2.6
{5.2}
+28.5 -2.3 13 +26 +26 жарко 1015.0 968.4 +28.8 +28.5
С 2.2
{4.9}
+28.2 -2.3 14 +25 +25 комфорт 1015.1 968.5 +28.5 +28.2
С 1.9
{4.7}
+27.7 -2.0 14 +25 +25 комфорт 1015.2 968.6 +28.2 +27.7
С 2.2
{4.9}
+27.2 -1.6 15 +25 +25 комфорт 1015.2 968.6 +27.7 +27.2
С 1.8
{3.7}
+26.3 -1.7 16 +24 +24 комфорт 1015.4 968.8 +26.6 +26.3
С 1.7
{3.9}
+26.2 -1.4 16 +24 +24 комфорт 1015.4 968.8 +26.3 +26.2
С 1.8
{3.5}
+26.0 -1.2 17 +24 +24 комфорт 1015.4 968.8 +26.2 +26.0
С 1.2
{3.1}
+25.6 -0.8 18 +24 +24 комфорт 1015.4 968.8 +26.0 +25.6
С 1.1
{2.7}
+25.2 -0.7 18 +23 +23 комфорт 1015.5 968.9 +25.6 +25.2
С 1.1
{2.9}
+24.9 -0.4 19 +23 +23 комфорт 1015.5 968.9 +25.2 +24.9
С 0.9
{2.1}
+24.6 -0.3 19 +23 +23 комфорт 1015.6 969.0 +24.9 +24.6
С 0.9
{1.8}
+24.4 -0.1 20 +23 +23 комфорт 1015.6 969.0 +24.6 +24.4
С 0.9
{2.1}
+23.9 -0.1 20 +23 +23 комфорт 1015.7 969.1 +24.2 +23.9
СЗ 1.4
{3.5}
+24.1 -0.8 19 +23 +23 комфорт 1015.7 969.1 +24.1 +23.9
С 1.0
{2.5}
+24.0 -0.6 20 +23 +23 комфорт 1015.7 969.1 +24.1 +24.0
С 1.7
{3.8}
+22.8 +0.8 23 +22 +22 комфорт 1015.8 969.2 +23.2 +22.8
С 1.4
{2.6}
+22.6 +0.9 24 +22 +22 комфорт 1015.8 969.2 +22.8 +22.6
С 1.3
{2.8}
+22.5 +0.8 24 +22 +22 комфорт 1015.8 969.2 +22.6 +22.5
С 1.3
{3.3}
+22.4 +0.8 24 +22 +22 комфорт 1015.8 969.2 +22.5 +22.4
С 1.4
{3.0}
+22.2 +0.9 24 +22 +22 комфорт 1015.8 969.2 +22.4 +22.2
С 1.5
{3.3}
+22.0 +1.0 25 +22 +22 комфорт 1015.8 969.2 +22.2 +22.0
СВ 1.8
{4.3}
+21.7 +1.4 26 +21 +21 комфорт 1015.9 969.3 +21.8 +21.7
СВ 1.6
{3.7}
+21.4 +1.5 27 +21 +21 комфорт 1015.9 969.3 +21.7 +21.4
В 1.8
{3.3}
+20.9 +2.3 29 +22 +22 комфорт 1015.9 969.3 +21.4 +20.9
СВ 1.4
{3.0}
+21.0 +2.0 28 +22 +22 комфорт 1015.9 969.3 +21.0 +20.6
С 1.1
{1.8}
+20.3 +2.7 31 +22 +22 комфорт 1015.8 969.2 +20.6 +20.3
С 1.0
{1.9}
+20.1 +2.8 32 +22 +22 комфорт 1015.7 969.1 +20.3 +20.1
В 0.9
{1.9}
+19.9 +2.7 32 +21 +21 комфорт 1015.7 969.1 +20.1 +19.9
СВ 0.8
{1.7}
+20.0 +2.2 31 +22 +22 комфорт 1015.6 969.0 +20.0 +19.9
С 0.4
{0.8}
+19.8 +2.4 31 +22 +22 комфорт 1015.6 969.0 +20.0 +19.8
В 0.3
{0.9}
+19.7 +2.7 32 +22 +22 комфорт 1015.5 968.9 +19.8 +19.7
Ю 0.7
{1.2}
+19.0 +3.4 36 +21 +21 комфорт 1015.6 969.0 +19.7 +19.0
Ю 0.5
{1.7}
+18.3 +3.7 38 +20 +20 1015.7 969.1 +18.6 +18.3
ЮВ 1.3
{2.0}
+17.9 +3.6 39 +19 +19 1015.6 969.0 +18.3 +17.9
В 1.1
{2.2}
+18.1 +2.0 34 +19 +19 1015.5 968.9 +18.1 +18.0
В 1.4
{2.6}
+18.6 +1.0 31 +20 +20 1015.5 968.9 +18.6 +18.1
В 0.7
{2.0}
+18.7 +1.9 33 +20 +20 1015.5 968.9 +18.8 +18.6
ЮЗ 0.7
{1.9}
+18.6 +2.1 33 +20 +20 1015.5 968.9 +18.7 +18.6
ЮВ 1.3
{2.1}
+18.0 +2.4 35 +19 +19 1015.5 968.9 +18.6 +18.0
ЮЗ 0.5
{1.0}
+17.9 +2.2 35 +20 +20 1015.4 968.8 +18.0 +17.9
ЮВ 0.8
{1.4}
+17.6 +1.9 35 +19 +19 1015.4 968.8 +17.7 +17.6
Ю 0.5
{0.9}
+17.5 +1.8 35 +19 +19 1015.3 968.7 +17.6 +17.4
ЮВ 0.6
{0.9}
+17.4 +2.1 36 +19 +19 1015.3 968.7 +17.5 +17.4
Ю 0.5
{1.0}
+17.1 +2.4 37 +19 +19 1015.3 968.7 +17.4 +17.1
ЮВ 0.2
{0.4}
+16.5 +2.7 39 +19 +19 1015.4 968.8 +16.8 +16.5
СЗ 1.0
{1.6}
+16.6 +3.1 40 +18 +18 1015.4 968.8 +16.6 +16.6
С 0.6
{1.3}
+16.5 +3.3 41 +18 +18 1015.5 968.9 +16.6 +16.5
С 0.9
{3.2}
+16.0 +4.4 46 +17 +17 1015.6 969.0 +16.3 +16.0
СВ 1.5
{3.9}
+15.6 +4.8 49 +16 +16 1015.6 969.0 +16.0 +15.6
СВ 0.8
{1.7}
+15.6 +4.9 49 +17 +17 1015.7 969.1 +15.6 +15.5
СВ 1.1
{2.5}
+15.6 +5.2 50 +16 +16 1015.8 969.2 +15.6 +15.5
СВ 1.5
{2.9}
+15.6 +5.6 51 +16 +16 1015.8 969.2 +15.7 +15.6
СВ 2.0
{3.5}
+15.6 +5.8 52 +16 +16 1015.8 969.2 +15.6 +15.6
СВ 1.5
{3.5}
+15.8 +6.0 52 +16 +16 1015.9 969.3 +15.8 +15.5
СВ 0.4
{1.0}
+17.3 +5.9 47 +19 +19 1015.9 969.3 +17.3 +16.5
СВ 0.6
{1.4}
+18.0 +5.9 45 +20 +20 1015.9 969.3 +18.0 +17.3
Местоположение метеостанции Навои (Навоийская область, Узбекистан): широта 40.08 долгота 65.38 высота над уровнем моря 0 м.
В архиве по умолчанию представлена погода в Навои за последние 1-2 суток. Обновление информации о фактической погоде в базе происходит ежечасно! Архивные данные за месяц целиком и за предыдущие месяцы Вы можете получить, выбрав интересующий диапазон дат из раскрывающегося списка и нажав кнопку "Ввод!".
*Определитесь, кто Вы:
Внимание! Время в таблицах - местное (без учета летнего времени). Для получения всемирного времени необходимо вычесть поправку, которая равна 5 ч.
Смотрите также архив погоды на ближайших метеорологических станциях:
Партнеры нашего сайта:      
Пояснения к столбцам:
  • Ветер - указаны скорость ветра в м/с - средняя за 10 мин, порывы в срок и между сроками (в фигурных скобках) и направление, откуда дует ветер: С - северный,
  • СВ - северо-восточный, В - восточный, ЮВ - юго-восточный, Ю - южный, ЮЗ - юго-западный, З - западный, СЗ - северо-западный.
  • Видимость - горизонтальная дальность видимости в метрах или километрах. При видимости от 1 до 10 км при отсутствии осадков обычно наблюдается дымка, при ухудшении видимости до 1 км и менее - туман. В сухую погоду видимость может ухудшаться дымом, пылью или мглою.
  • Явления - указаны атмосферные явления, наблюдавшиеся в срок или в последний час перед сроком.
  • Солнечная радиация - мощность потока солнечного излучения на поверхность земли и предметов в Вт/м2.
  • T - Температура воздуха - температура, измеренная на высоте 2 м над землей.
  • Td - Температура точки росы - температура, при понижении до которой содержащийся в воздухе водяной пар достигнет насыщения.
  • f - Относительная влажность воздуха - влажноcть воздуха, измеренная на высоте 2 м над землей.
  • Te - Эффективная температура - температура, которую ощущает одетый по сезону человек в тени. Характеристика душности погоды. При расчете учитывается влияние влажности воздуха и скорости ветра на теплоощущения человека.
  • Tes - Эффективная температура на солнце - температура, которую ощущает человек, с поправкой на солнечный нагрев. Характеристика знойности погоды. Зависит от высоты солнца над горизонтом, облачности и скорости ветра. Ночью, в пасмурную погоду, а также при ветре 12 м/с и более поправка равна нулю.
  • P - Атмосферное давление - приведенное к уровню моря атмосферное давление.
  • Po - Атмосферное давление - измеренное на уровне метеостанции атмосферное давление.
  • Tmin - Минимальная температура - минимум температуры воздуха на высоте 2 м над землей.
  • Tmax - Максимальная температура - максимум температуры воздуха на высоте 2 м над землей.
  • R - Количество осадков - Количество выпавших осадков за период времени, мм. При наведении курсора мыши на число - период времени, за который выпало указанное количество осадков.